星链-3791 (STARLINK-3791 )

导读 | 豆包AI

STARLINK-3791是美国SpaceX星链项目的卫星,于2022年4月21日发射升空,属于星链低轨卫星星座的组成部分。星链项目旨在通过数千颗低轨卫星组网,为全球偏远欠发达地区提供高速低延迟宽带互联网接入服务,STARLINK-3791的入轨进一步扩充了星链星座的服务覆盖能力,助力实现全球无缝网络覆盖的目标,也推动星链完成了星座规模的阶段性扩张,支撑其商业服务的落地推广。

基本信息
目录编号:
52269
目录名称:
STARLINK-3791
国际标识:
2022-041J
轨道中心:
EARTH
卫星名称:
星链-3791
卫星全名:
星链-3791 (STARLINK-3791 )
卫星状态:
在轨 (已飞行1470 天)
发射日期:
2022-04-21 UTC
国别 :
美国 (US)
星等 :
--
轨道信息
数据来源 国际轨道数据 AOE轨道数据
星历时间 2026-04-30T21:25:41+0800
9小时前
查看轨道信息
2026-04-28T09:00:00+0800
2天前
查看轨道信息
半长轴 6917.873km 6917.873km
偏心率 0.0001088 0.0001002
轨道倾角 53.219° 53.217°
近地点辐角 90.564° 89.853°
升交点赤经 236.270° 247.573°
平近点角 269.548° 266.401°
近地点 538.983km 539.042km
远地点 540.489km 540.43km
周期 95.437分钟 95.437分钟
每日圈数 15.088427 15.088426
详细信息
固有亮度:
5
最大亮度:
2.5
卫星平台:
Starlink v1.5
覆盖范围:
全球
运营商:
太空探索技术公司
运营商所在国:
美国
制造商(研发单位):
太空探索技术公司
制造商所在国:
美国
使用方式:
暂无
卫星简介
星链(Starlink)计划是由太空探索技术公司(SpaceX)提出的一个巨型低轨卫星互联网星座项目,计划在2019年至2024年间在太空搭建由约1.2万颗卫星组成的“星链”网络,其中1584颗将部署在地球上空550千米处的近地轨道,并从2020年开始工作。该卫星仍在工作。
2D轨道图
3D轨道图
轨道高度分析图
轨道倾角分析图
轨道综合分析图
查看轨道综合分析图